User: anonymous   Login
Location: Wayah Bald
(35.1806°N, 83.5603°W)
Time: 00:44:04
(UTC-05:00)
Language:

Meteor 1-27 Rocket - Orbit

View from above orbital plane
View from above orbital plane
View from above satellite
View from above satellite

Ground track
Ground track

The orbit data is extracted from the following two-line orbital elements,

1 09904U 77024B   16039.67458969  .00000199  00000-0  11119-3 0  9990
2 09904  81.2592 247.6625 0054712 281.1985  78.3036 14.06813096993260
Epoch (UTC): 08 February 2016 16:11:24
Eccentricity: 0.0054712
inclination: 81.2592°
perigee height: 830 km
apogee height: 910 km
right ascension of ascending node: 247.6625°
argument of perigee: 281.1985°
revolutions per day: 14.06813096
mean anomaly at epoch: 78.3036°
orbit number at epoch: 99326

The dashed part of the orbit path shows where the satellite is in the earth's shadow,  

DLR